[[{"header":{"parameterUnit":"m.s-1","parameterCategory":1,"la1":30.2991,"la2":30.254,"lo1":-89.0895,"lo2":-89.0444,"dy":0.0017,"dx":0.0017,"nx":28,"ny":28,"refTime":"2023-08-09T21:00:00:Z","depth":0,"parameterNumber":2,"parameterNumberName":"U-component_of_WINDS"},"data":[0,0,0,0,0,0,0,0,0,0,0,0,0,0,0,0,0,0,0,0,0,0,0,0,0,0,0,0,0,0,0,0,0,0,0,0,0,0,0,0,0,0,0,0,0,0,0,0,0,0,0,0,0,0,0,0,0,0,5.282,5.2821,0,5.2899,5.29,5.2901,5.2813,5.2809,5.2806,5.2803,5.2883,5.2888,5.2894,0,0,0,0,0,0,0,0,0,0,0,0,0,5.2589,5.2593,5.282,5.2821,5.2822,5.2899,5.29,5.2901,5.2813,5.2809,5.2805,5.2801,5.2882,5.2888,5.2894,0,0,0,0,0,0,0,0,0,0,0,0,0,5.2681,5.2595,5.2819,5.2787,5.2785,5.2899,5.29,5.2901,5.2814,5.2809,5.2804,5.2799,5.2879,5.2887,5.2895,5.3044,0,0,5.2919,5.2922,0,0,0,0,0,0,0,0,5.2676,5.2689,5.2791,5.279,5.2787,5.2841,5.2848,5.2949,5.2815,5.2803,5.2803,5.2797,5.2873,5.2881,5.2907,5.3048,5.3051,5.292,5.2924,5.2928,5.293,0,0,0,0,0,0,0,5.2669,5.2685,5.2851,5.2792,5.279,5.2768,5.2775,5.2867,5.2865,5.2804,5.2798,5.2808,5.2871,5.29,5.2908,5.3052,5.2919,5.2926,5.2931,5.2934,5.3314,5.3319,0,0,0,0,0,0,5.2667,5.2681,5.2848,5.2853,5.2718,5.2776,5.2784,5.2829,5.2864,5.2865,5.2812,5.2804,5.2889,5.2899,5.2911,5.3083,5.2928,5.2935,5.294,5.3308,5.3315,5.3321,0,0,0,0,0,0,5.2662,5.2683,5.2845,5.2765,5.2784,5.2785,5.2836,5.2833,5.2861,5.2871,5.287,5.2842,5.2885,5.29,5.301,5.3085,5.2939,5.2946,5.3302,5.331,5.3318,5.3433,0,0,0,0,0,0,5.2656,5.2682,5.2739,5.2767,5.2789,5.2945,5.2841,5.2838,5.2875,5.2865,5.2898,5.2899,5.2882,5.2999,5.3018,5.3093,5.2952,5.3295,5.3306,5.3315,5.3422,5.3444,5.3462,0,0,0,0,0,5.2648,5.2769,5.2743,5.2763,5.2861,5.2949,5.2962,5.2941,5.2882,5.2938,5.2944,5.2898,5.3075,5.3011,5.3032,5.3111,5.329,5.3303,5.3314,5.3413,5.3439,5.3462,0,0,0,0,0,0,5.2751,5.2773,5.2743,5.2877,5.2912,5.2934,5.3005,5.297,5.3022,5.301,5.2981,5.2989,5.3106,5.312,5.3049,5.3254,5.3173,5.3189,5.3241,5.3266,5.3285,5.3278,5.2959,0,0,0,0,0,5.2789,5.2859,5.2875,5.2991,5.301,5.3005,5.3043,5.3024,5.3058,5.3073,5.3086,5.3121,5.3184,5.3226,5.3285,5.3425,5.3428,5.3489,5.3509,5.3525,5.3539,5.3609,5.3635,5.336,5.336,5.336,0,0,5.2868,5.2889,5.2936,5.3012,5.3037,5.3109,5.3018,5.3099,5.3152,5.3085,5.3189,5.32,5.3237,5.3362,5.3417,5.3377,5.3616,5.354,5.3553,5.3558,5.3624,5.365,5.3673,5.3368,5.3367,5.3366,0,0,5.3049,5.3074,5.3171,5.3197,5.3235,5.3231,5.3254,5.3282,5.3286,5.3391,5.334,5.3402,5.3513,5.3539,5.3568,5.3756,5.3714,5.3776,5.3879,5.3948,5.397,5.3988,5.4051,5.4075,5.379,5.3791,5.3791,0,5.3143,5.325,5.3226,5.331,5.3343,5.3286,5.3383,5.3409,5.3465,5.3489,5.3443,5.3577,5.3598,5.3726,5.3771,5.3798,5.3821,5.3771,5.3969,5.3987,5.4005,5.4064,5.4089,5.3798,5.3797,5.3796,5.3796,0,5.3361,5.3436,5.3511,5.3564,5.3607,5.3697,5.3685,5.373,5.3707,5.3707,5.3811,5.3835,5.3895,5.3924,5.3903,5.4049,5.4021,5.3973,5.389,5.4038,5.4093,5.4117,5.3808,5.3805,5.3803,5.3801,0,0,5.3609,5.3646,5.3674,5.3695,5.3732,5.3789,5.3875,5.3934,5.3971,5.4012,5.4081,5.4174,5.4128,5.416,5.4142,5.4203,5.4345,5.4146,5.4146,5.4178,5.4501,5.4535,5.4562,5.4318,5.4322,5.4326,5.4496,0,5.3787,5.3936,5.3916,5.4059,5.4125,5.407,5.4145,5.4175,5.4176,5.4232,5.4234,5.4298,5.4235,5.4253,5.4312,5.4315,5.4408,5.4303,5.4379,5.4382,5.4368,5.4591,5.4628,5.4788,5.4518,5.4522,5.4525,0,5.4015,5.4061,5.421,5.4233,5.426,5.4328,5.4377,5.4433,5.4464,5.446,5.4495,5.4464,5.4548,5.4466,5.4579,5.4507,5.4538,5.4544,5.4549,5.4553,5.446,5.4597,5.4839,5.4862,5.456,5.4557,5.4554,0,5.4175,5.4275,5.4376,5.4397,5.4427,5.4475,5.449,5.4516,5.4552,5.4595,5.4617,5.4671,5.47,5.4741,5.4724,5.4666,5.4839,5.4756,5.4836,5.4836,5.4872,5.487,5.5119,5.4899,5.4898,5.4898,5.4897,0,5.4374,5.4466,5.4447,5.4509,5.461,5.4585,5.4685,5.4693,5.4717,5.4777,5.4735,5.4793,5.4769,5.4825,5.4813,5.4906,5.492,5.4917,5.4912,5.4919,5.4919,5.4936,5.4923,5.4904,5.4903,5.4902,5.49,0,5.4569,5.4561,5.4666,5.4685,5.4692,5.4765,5.4781,5.4837,5.4835,5.4912,5.4929,5.4926,5.4988,5.4977,5.5047,5.5038,5.5154,5.5137,5.5143,5.5137,5.5216,5.5207,5.5481,5.5514,5.5277,5.5279,5.5281,0,5.4695,5.4764,5.479,5.4827,5.4845,5.4907,5.4941,5.4919,5.4957,5.4996,5.5048,5.5107,5.5152,5.5255,5.5258,5.531,5.5292,5.5385,5.53,5.5303,5.5288,5.5283,5.5288,5.54,5.5403,5.5405,5.5407,0,5.4917,5.4909,5.4961,5.5012,5.5055,5.5094,5.5128,5.5161,5.5141,5.5186,5.5249,5.5285,5.5355,5.5413,5.5461,5.5474,5.5437,5.5434,5.5454,5.546,5.5459,5.5456,5.5184,5.5427,5.5425,5.5424,5.5423,5.5422,5.5079,5.5136,5.5162,5.5221,5.5244,5.5277,5.5329,5.5333,5.5386,5.544,5.5424,5.5495,5.5521,5.5582,5.5601,5.5655,5.562,5.5651,5.5658,5.5665,5.5672,5.5454,5.5664,5.5664,5.5663,5.5663,5.5662,0,5.5295,5.5309,5.5363,5.5412,5.5457,5.5419,5.5454,5.5494,5.5557,5.5585,5.563,5.5701,5.5756,5.5763,5.5814,5.5856,5.5839,5.587,5.5864,5.5867,5.5703,5.5678,5.5881,5.5881,5.5881,5.5881,5.5881,5.5881,5.5413,5.5506,5.5501,5.5604,5.5617,5.5686,5.5708,5.5737,5.5759,5.5839,5.5885,5.5889,5.5907,5.5959,5.6007,5.6007,5.6026,5.6062,5.6056,5.5901,5.5879,5.5858,5.5835,5.6068,5.6068,5.6215,5.6216,5.6217]},{"header":{"parameterUnit":"m.s-1","parameterCategory":1,"la1":30.2991,"la2":30.254,"lo1":-89.0895,"lo2":-89.0444,"dy":0.0017,"dx":0.0017,"nx":28,"ny":28,"refTime":"2023-08-09T21:00:00:Z","depth":0,"parameterNumber":3,"parameterNumberName":"V-component_of_WINDS"},"data":[0,0,0,0,0,0,0,0,0,0,0,0,0,0,0,0,0,0,0,0,0,0,0,0,0,0,0,0,0,0,0,0,0,0,0,0,0,0,0,0,0,0,0,0,0,0,0,0,0,0,0,0,0,0,0,0,0,0,3.5941,3.5942,0,3.6053,3.6054,3.6055,3.6067,3.6065,3.6064,3.6063,3.6173,3.6177,3.6181,0,0,0,0,0,0,0,0,0,0,0,0,0,3.573,3.5734,3.5941,3.5942,3.5943,3.6053,3.6054,3.6056,3.6067,3.6065,3.6064,3.6063,3.6172,3.6177,3.6182,0,0,0,0,0,0,0,0,0,0,0,0,0,3.583,3.5735,3.594,3.5962,3.5965,3.6052,3.6054,3.6056,3.6067,3.6065,3.6064,3.6062,3.617,3.6176,3.6182,3.6254,0,0,3.6201,3.6203,0,0,0,0,0,0,0,0,3.5824,3.5837,3.5958,3.5961,3.5965,3.6044,3.602,3.6122,3.6067,3.6028,3.6063,3.6061,3.6131,3.614,3.6165,3.6259,3.6263,3.6201,3.6205,3.6207,3.6209,0,0,0,0,0,0,0,3.5817,3.5833,3.5985,3.5959,3.5964,3.5964,3.5977,3.604,3.6088,3.6032,3.6033,3.6046,3.6133,3.6159,3.6168,3.6265,3.6201,3.6206,3.621,3.6212,3.642,3.6421,0,0,0,0,0,0,3.5807,3.5827,3.5981,3.5988,3.5889,3.597,3.5983,3.602,3.6087,3.6096,3.6047,3.6046,3.615,3.6161,3.6172,3.6258,3.6207,3.6213,3.6216,3.6418,3.642,3.6422,0,0,0,0,0,0,3.5802,3.5821,3.5977,3.5908,3.5928,3.5975,3.6016,3.6023,3.605,3.6099,3.6107,3.6066,3.6149,3.6163,3.6233,3.6262,3.6216,3.6221,3.6415,3.6418,3.6421,3.6432,0,0,0,0,0,0,3.5796,3.5819,3.5848,3.5909,3.5932,3.6038,3.6018,3.6027,3.6061,3.606,3.6119,3.6127,3.6149,3.6224,3.6239,3.6269,3.6226,3.6413,3.6417,3.642,3.6429,3.6435,3.644,0,0,0,0,0,3.5789,3.5846,3.585,3.5868,3.5969,3.604,3.6053,3.6078,3.6063,3.6092,3.6123,3.6125,3.6256,3.6231,3.6248,3.6281,3.6411,3.6416,3.642,3.6427,3.6434,3.6439,0,0,0,0,0,0,3.5787,3.5855,3.5859,3.5939,3.5983,3.6042,3.6079,3.6085,3.6134,3.6131,3.6159,3.6172,3.624,3.6267,3.6237,3.6352,3.6332,3.634,3.6331,3.6338,3.6344,3.6335,3.6231,0,0,0,0,0,3.5796,3.585,3.5905,3.5969,3.5992,3.6031,3.6063,3.6078,3.6125,3.6144,3.6181,3.6225,3.6275,3.6309,3.6358,3.6433,3.6445,3.6464,3.6469,3.6473,3.6479,3.6518,3.6526,3.6436,3.6436,3.6436,0,0,3.5815,3.5859,3.5891,3.597,3.6007,3.6059,3.6047,3.6104,3.6142,3.6152,3.622,3.6248,3.6299,3.6371,3.6404,3.6395,3.6507,3.6478,3.6481,3.6485,3.6523,3.6532,3.6539,3.6439,3.6439,3.6438,0,0,3.5876,3.5916,3.5973,3.601,3.6065,3.6091,3.6104,3.6161,3.6181,3.6249,3.6257,3.6302,3.639,3.6425,3.6455,3.6526,3.6529,3.6542,3.6569,3.6606,3.6613,3.662,3.6644,3.6652,3.6548,3.6548,3.6548,0,3.5893,3.5974,3.6001,3.6057,3.609,3.6103,3.6159,3.6193,3.6261,3.6283,3.6273,3.6382,3.6417,3.6496,3.6513,3.6538,3.6552,3.6535,3.6611,3.6617,3.6624,3.6646,3.6655,3.6549,3.6549,3.6549,3.6549,0,3.599,3.6045,3.6084,3.6151,3.6189,3.6245,3.6278,3.6313,3.6324,3.635,3.6418,3.6461,3.6518,3.6538,3.655,3.6618,3.6611,3.6605,3.6586,3.6633,3.6655,3.6664,3.655,3.655,3.655,3.655,0,0,3.6054,3.6134,3.6148,3.6177,3.6238,3.6281,3.6336,3.6393,3.6421,3.6468,3.6513,3.6586,3.6581,3.6614,3.6629,3.6662,3.6714,3.6653,3.6654,3.6661,3.6789,3.6792,3.6802,3.6716,3.6718,3.6719,3.6784,0,3.6121,3.6221,3.6246,3.6331,3.6381,3.6392,3.644,3.6481,3.6506,3.655,3.6577,3.6628,3.6618,3.6638,3.6671,3.67,3.6739,3.6696,3.6756,3.6758,3.6742,3.6813,3.6817,3.6876,3.6793,3.6794,3.6795,0,3.6213,3.6261,3.6351,3.6404,3.6426,3.6469,3.6522,3.6565,3.6611,3.6627,3.6663,3.6675,3.6729,3.6708,3.6782,3.6752,3.6778,3.6796,3.6798,3.6804,3.6779,3.6819,3.6896,3.6904,3.6809,3.6808,3.6807,0,3.6248,3.6336,3.6401,3.6426,3.649,3.6519,3.6546,3.6591,3.6623,3.6669,3.6689,3.674,3.6768,3.6806,3.683,3.6812,3.6902,3.6883,3.6914,3.6914,3.6932,3.6931,3.7013,3.6951,3.6951,3.6951,3.6951,0,3.632,3.6374,3.6418,3.6457,3.6517,3.6544,3.6602,3.6629,3.6668,3.6711,3.6724,3.6764,3.6794,3.6837,3.6856,3.6914,3.6926,3.6939,3.6943,3.6937,3.6935,3.6954,3.695,3.6953,3.6953,3.6952,3.6952,0,3.637,3.6402,3.6472,3.6527,3.6541,3.6583,3.6628,3.6665,3.669,3.6745,3.6759,3.6797,3.6848,3.6876,3.6941,3.6953,3.7017,3.702,3.7002,3.7003,3.7033,3.7029,3.7128,3.7142,3.7073,3.7073,3.7074,0,3.6413,3.6455,3.6513,3.6544,3.6572,3.6621,3.6654,3.6681,3.6714,3.6768,3.6798,3.6851,3.6894,3.6975,3.7007,3.7056,3.7059,3.709,3.7066,3.7058,3.7057,3.7054,3.7057,3.7094,3.7094,3.7095,3.7095,0,3.6485,3.6498,3.6546,3.6598,3.6637,3.668,3.6721,3.6745,3.6778,3.6814,3.6868,3.6901,3.6967,3.7017,3.7068,3.7094,3.7099,3.7103,3.7112,3.7106,3.7094,3.7099,3.7012,3.71,3.71,3.7099,3.7099,3.7099,3.6532,3.6569,3.6615,3.6667,3.6701,3.6739,3.6777,3.6806,3.6851,3.6908,3.692,3.6976,3.7018,3.7087,3.7114,3.7156,3.715,3.7164,3.7168,3.717,3.7171,3.7088,3.7166,3.7165,3.7165,3.7165,3.7165,0,3.6603,3.6633,3.6681,3.6739,3.6779,3.6782,3.6828,3.686,3.6909,3.6949,3.6991,3.7051,3.71,3.7136,3.7185,3.7211,3.7215,3.7223,3.7221,3.7226,3.7174,3.716,3.722,3.722,3.7219,3.7219,3.7219,3.7219,3.6645,3.6707,3.6725,3.6803,3.6832,3.6888,3.6913,3.6947,3.6979,3.7046,3.7087,3.711,3.7147,3.7199,3.7243,3.7252,3.7269,3.7277,3.7286,3.7236,3.723,3.7225,3.7212,3.7281,3.7281,3.7334,3.7334,3.7335]}]]